642  
NZUS99 KTBW 190617  
RWRTPA  
FLORIDA REGIONAL WEATHER ROUNDUP  
NATIONAL WEATHER SERVICE TAMPA BAY RUSKIN FL  
200 AM EDT TUE MAR 19 2019  
 
NOTE: "FAIR" INDICATES FEW OR NO CLOUDS BELOW 12,000 FEET WITH NO  
SIGNIFICANT WEATHER AND/OR S TO VISIBILITY
.  
 
 
STATION/POSITION
 
 
 
FLZ042-048>051-055-056-060-061-190700-  
EXTRA STATIONS  
 
CITY SKY/WX TMP DP RH WIND PRES REMARKS
 
EVERGLADES CTY NOT AVBL  
CRYSTAL RIVER FAIR 55 37 50 CALM 30.17F  
SEBRING LGT RAIN 56 55 94 N13 30.13F  
EGLIN AFB FAIR 54 31 42 N9 30.24F  
CANAVERAL LGT RAIN 63 52 67 N9 30.12R  
 

 
FLZ001>010-012>015-190700-  
PANHANDLE FLORIDA  
 
CITY SKY/WX TMP DP RH WIND PRES REMARKS
 
PENSACOLA FAIR 56 34 43 N9 30.24F  
PENSACOLA NAS FAIR 57 34 41 N12G21 30.23F  
MILTON NAS FAIR 51 36 56 N5 30.25F  
CRESTVIEW FAIR 54 30 40 NE9 30.26F  
VALPARAISO FAIR 56 30 37 N14 30.22F  
PANAMA CITY FAIR 55 35 47 N9 30.21F  
TYNDALL AFB FAIR 58 34 41 N9 30.21F  
APALACHICOLA FAIR 56 36 47 N8 30.20F  
 
STATION/POSITION
 
 
29.2N 88.2W  
 

 
FLZ011-016>039-190700-  
NORTH FLORIDA  
 
CITY SKY/WX TMP DP RH WIND PRES REMARKS
 
MARIANNA FAIR 54 32 43 N13 30.24S  
TALLAHASSEE FAIR 57 36 45 N8 30.21F  
PERRY FAIR 54 41 61 N5 30.20F  
CROSS CITY FAIR 51 45 80 N3 30.18F  
GAINESVILLE FAIR 54 44 69 CALM 30.20F  
MAYPORT NAS FAIR 57 50 77 W3 30.18R  
JACKSONVILLE CLOUDY 51 46 83 CALM 30.18S  
JAX NAS CLOUDY 59 41 51 W5 30.19S  
JAX CRAIG FAIR 51 49 92 CALM 30.18S  
ST AUGUSTINE FAIR 56 44 64 NW5 30.19F  
 
STATION/POSITION
 
 
KEATON BEACH  
31.4N 80.9W  
ST AUGUSTINE  
 

 
FLZ040-043>046-052-053-057-058-063-190700-  
CENTRAL FLORIDA  
 
CITY SKY/WX TMP DP RH WIND PRES REMARKS
 
OCALA FAIR 56 39 53 N3 30.18F  
LEESBURG CLOUDY 59 42 53 N6 30.17F  
SANFORD MOCLDY 60 47 61 N6 30.15F  
ORLANDO EXEC LGT RAIN 58 50 75 N6 30.15F  
ORLANDO INTL LGT RAIN 57 49 74 N10 30.15F  
KISSIMMEE LGT RAIN 58 50 75 N7 30.16F  
WINTER HAVEN LGT RAIN 55 48 77 N6 30.17F  
LAKELAND LGT RAIN 54 46 76 N3 30.17F  
BARTOW RAIN 55 48 76 N7 30.15F  
 

 
FLZ041-047-054-059-064-190700-  
EAST CENTRAL FLORIDA  
 
CITY SKY/WX TMP DP RH WIND PRES REMARKS
 
DAYTONA BEACH CLOUDY 63 45 51 N10 30.15F  
JFK SPACE CTR FAIR 61 52 72 N8 30.13R  
PATRICK AFB FAIR 62 56 80 N14 30.12R  
MELBOURNE LGT RAIN 61 57 87 NW6 30.12R FOG  
VERO BEACH LGT RAIN 64 61 90 N8 30.10R FOG  
FT PIERCE RAIN 64 60 87 N5 30.09R  
STUART RAIN 64 61 88 N10G16 30.09S  
 
STATION/POSITION
 
 
28.9N 78.5W  
 

 
FLZ042-048>051-055-056-060-061-190700-  
WEST CENTRAL FLORIDA  
 
CITY SKY/WX TMP DP RH WIND PRES REMARKS
 
BROOKSVILLE CLOUDY 58 40 51 N3 30.17F  
TAMPA LGT RAIN 56 46 69 NE5 30.17F  
MACDILL AFB LGT RAIN 53 45 74 NE7 30.16F  
ST PETERSBURG LGT RAIN 57 44 62 NE12 30.16F  
ST PET-WHITTED LGT RAIN 59 47 64 NE21 30.15S  
SARASOTA RAIN 54 50 86 NE8 30.13S  
 
STATION/POSITION
 
 
CEDAR KEY  
VENICE  
 

 
FLZ062-065-066-069-070-075>078-190700-  
SOUTHWEST FLORIDA AND KEYS  
 
CITY SKY/WX TMP DP RH WIND PRES REMARKS
 
PUNTA GORDA LGT RAIN 57 54 89 NE14 30.13F  
FT MYERS LGT RAIN 58 57 97 NE17G24 30.08F  
SOUTHWEST INTL LGT RAIN 58 56 93 NE13G23 30.08F  
NAPLES N/A N/A N/A N/A MISG 30.07R  
MARATHON CLOUDY 76 68 76 NE15 29.98F  
KEY WEST NAS CLOUDY 75 67 76 NE14 29.99F  
KEY WEST INTL MOCLDY 74 68 81 NE15 29.99F  
 
STATION/POSITION
 
 
VENICE  
26.0N 85.6W  
SAND KEY  
SOMBRERO KEY  
 

 
FLZ067-068-071>074-190700-  
SOUTHEAST FLORIDA  
 
CITY SKY/WX TMP DP RH WIND PRES REMARKS
 
W PALM BEACH LGT RAIN 69 65 86 N12G18 30.04S FOG  
POMPANO BEACH RAIN 70 67 90 N12G21 30.02S FOG  
FT LAUDER-EXEC CLOUDY 70 69 97 N10 30.02S  
FT LAUDERDALE LGT RAIN 71 67 87 N8 30.01F  
PEMBROKE PINES CLOUDY 70 65 84 N12 30.03F  
OPA LOCKA MOCLDY 70 65 84 N9 30.02F  
MIAMI CLOUDY 70 66 87 N5 30.02F  
WEST KENDALL CLOUDY 69 64 84 N10 30.02F  
HOMESTEAD MOCLDY 70 65 85 NW9 30.00F  
 
STATION/POSITION
 
 
LAKE WORTH  
FOWEY ROCKS  
SETTLEMENT POINT  
 

 
 
 
CLICK HERE TO GO TO PREVIOUS BULLETINS.

The Nexlab FL Page Main Text Page